Chino, CA

6:02 AM PDT on August 23, 2017 (GMT -0700)
Chino

Weather History for KCNO - December, 2013

Change the Weather History Date:

Thursday, December 19, 2013

  Actual Average Record
Temperature  
Mean Temperature 50 °F -  
Max Temperature 57 °F 65 °F 78 °F (1999)
Min Temperature 42 °F 36 °F 30 °F (2006)
Degree Days  
Heating Degree Days 16    
Moisture  
Dew Point 46 °F    
Average Humidity 85    
Maximum Humidity 100    
Minimum Humidity 67    
Precipitation  
Precipitation 0.10 in - - ()
Sea Level Pressure  
Sea Level Pressure 29.78 in    
Wind  
Wind Speed 5 mph (WSW)    
Max Wind Speed 13 mph    
Max Gust Speed -    
Visibility 6 miles    
Events Fog , Rain , Thunderstorm    
Averages and records for this station are not official NWS values.
T = Trace of Precipitation, MM = Missing Value Source: NWS Daily Summary

Daily Weather History Graph

Daily Weather History Graph

Search for Another Location

Airport or City:

Trip Planner

Search our weather history database for the weather conditions in past years. The results will help you decide how hot, cold, wet, or windy it might be!

Date:

Astronomy

Dec. 19, 2013 Rise Set
Actual Time 6:51 AM PST 4:44 PM PST
Civil Twilight 6:23 AM PST 5:12 PM PST
Nautical Twilight 5:52 AM PST 5:43 PM PST
Astronomical Twilight 5:21 AM PST 6:14 PM PST
Moon 7:08 PM PST (12/19) 8:17 AM PST (12/19)
Length of Visible Light 10h 49m
Length of Day
9h 53m
Waning Gibbous, 95% of the Moon is Illuminated
Dec 19
Waning Gibbous
Dec 25
Last Quarter
Jan 1
New
Jan 7
First Quarter
Jan 15
Full

Hourly Weather History & Observations

Time (PST) Temp. Windchill Dew Point Humidity Pressure Visibility Wind Dir Wind Speed Gust Speed Precip Events Conditions
12:21 AM 53.6 °F - 51.8 °F 94% 29.87 in 6.0 mi West 5.8 mph - N/A   Overcast
12:53 AM 55.0 °F - 50.0 °F 83% 29.85 in 6.0 mi SW 4.6 mph - N/A   Haze
1:40 AM 55.4 °F - 48.2 °F 77% 29.85 in 8.0 mi SW 8.1 mph - N/A   Overcast
1:53 AM 54.0 °F - 46.9 °F 77% 29.83 in 8.0 mi SSW 8.1 mph - N/A   Overcast
2:53 AM 53.1 °F - 46.0 °F 77% 29.83 in 8.0 mi South 4.6 mph - N/A   Overcast
3:53 AM 53.1 °F - 46.0 °F 77% 29.82 in 8.0 mi West 9.2 mph - N/A   Overcast
4:53 AM 52.0 °F - 46.0 °F 80% 29.79 in 8.0 mi WSW 6.9 mph - N/A   Overcast
5:53 AM 51.1 °F - 46.0 °F 83% 29.78 in 8.0 mi West 6.9 mph - N/A   Overcast
6:53 AM 52.0 °F - 45.0 °F 77% 29.78 in 10.0 mi WSW 6.9 mph - N/A   Overcast
7:53 AM 53.1 °F - 45.0 °F 74% 29.80 in 10.0 mi WSW 6.9 mph - N/A   Overcast
8:53 AM 52.0 °F - 46.9 °F 83% 29.82 in 7.0 mi South 5.8 mph - 0.00 in   Overcast
9:53 AM 54.0 °F - 45.0 °F 72% 29.82 in 10.0 mi Calm Calm - N/A   Overcast
10:53 AM 55.0 °F - 46.0 °F 72% 29.79 in 10.0 mi Calm Calm - N/A   Overcast
11:53 AM 55.9 °F - 45.0 °F 67% 29.75 in 10.0 mi East 5.8 mph - N/A   Overcast
12:53 PM 57.9 °F - 46.9 °F 67% 29.72 in 10.0 mi SE 4.6 mph - N/A   Mostly Cloudy
1:11 PM 55.4 °F - 44.6 °F 67% 29.72 in 8.0 mi Calm Calm - N/A Thunderstorm Mostly Cloudy
1:32 PM 55.4 °F - 44.6 °F 67% 29.72 in 8.0 mi SW 4.6 mph - N/A   Overcast
1:53 PM 52.0 °F - 46.9 °F 83% 29.72 in 5.0 mi SW 12.7 mph - 0.00 in Rain Light Rain
2:09 PM 50.0 °F - 46.4 °F 87% 29.73 in 3.0 mi SW 8.1 mph - 0.02 in Rain , Thunderstorm Light Rain
2:21 PM 50.0 °F - 46.4 °F 87% 29.73 in 3.0 mi West 9.2 mph - 0.03 in Rain , Thunderstorm Light Rain
2:53 PM 51.1 °F - 46.9 °F 86% 29.74 in 3.0 mi WNW 9.2 mph - 0.07 in Rain , Thunderstorm Rain
3:53 PM 51.1 °F - 48.0 °F 89% 29.75 in 7.0 mi North 3.5 mph - 0.02 in Rain Light Rain
4:53 PM 51.1 °F - 48.0 °F 89% 29.75 in 10.0 mi Calm Calm - 0.00 in   Mostly Cloudy
5:53 PM 48.9 °F - 46.9 °F 93% 29.76 in 9.0 mi NNE 3.5 mph - 0.01 in Rain Light Rain
6:53 PM 48.9 °F - 46.9 °F 93% 29.76 in 7.0 mi Calm Calm - 0.00 in   Overcast
7:53 PM 48.9 °F - 48.0 °F 97% 29.77 in 5.0 mi Calm Calm - 0.00 in Rain Light Rain
8:53 PM 50.0 °F - 46.9 °F 89% 29.76 in 8.0 mi SSE 3.5 mph - 0.00 in   Overcast
9:53 PM 46.9 °F - 45.0 °F 93% 29.77 in 6.0 mi Calm Calm - N/A   Clear
10:53 PM 45.0 °F - 45.0 °F 100% 29.78 in 1.8 mi Calm Calm - N/A   Clear
11:00 PM 44.6 °F - 44.6 °F 100% 29.78 in 3.0 mi Calm Calm - N/A   Clear
11:03 PM 42.8 °F - 42.8 °F 100% 29.79 in 1.8 mi Calm Calm - N/A   Clear
11:19 PM 42.8 °F 41.1 °F 42.8 °F 100% 29.79 in 0.5 mi NNW 3.5 mph - N/A Fog Fog
11:34 PM 44.6 °F - 44.6 °F 100% 29.79 in 1.0 mi Calm Calm - N/A   Clear
11:53 PM 43.0 °F 41.3 °F 43.0 °F 100% 29.80 in 1.0 mi North 3.5 mph - N/A   Clear